This is the latest recevied weather packets stored in our database for station/object CE1RLP-31. If no packets are shown the sender has not sent any weather packets the latest 10 day(s).
| Time | Temp. | Humidity | Pressure | Rain* | Wind** | Luminosity | Snow |
|---|---|---|---|---|---|---|---|
| 1777612053 | 5.56° C | 15% | 1098.3 hPa | - | - | - | - |
| 1777611153 | 5.56° C | 15% | 1098.3 hPa | - | - | - | - |
| 1777610253 | 5.56° C | 16% | 1098.5 hPa | - | - | - | - |
| 1777609353 | 5.56° C | 14% | 1098.5 hPa | - | - | - | - |
| 1777608453 | 5.56° C | 11% | 1098.5 hPa | - | - | - | - |
| 1777607554 | 5.56° C | 13% | 1098.5 hPa | - | - | - | - |
| 1777606654 | 5.56° C | 12% | 1098.5 hPa | - | - | - | - |
| 1777605754 | 5.56° C | 12% | 1098.5 hPa | - | - | - | - |
| 1777604854 | 5.56° C | 12% | 1098.4 hPa | - | - | - | - |
| 1777603954 | 5.56° C | 11% | 1098.5 hPa | - | - | - | - |
| 1777603054 | 5.56° C | 11% | 1098.5 hPa | - | - | - | - |
| 1777602154 | 6.11° C | 9% | 1098.4 hPa | - | - | - | - |
| 1777601254 | 6.11° C | 10% | 1098.5 hPa | - | - | - | - |
| 1777583253 | 12.22° C | 10% | 1097 hPa | - | - | - | - |
| 1777580553 | 12.78° C | 10% | 1096.8 hPa | - | - | - | - |
| 1777578753 | 13.33° C | 10% | 1096.8 hPa | - | - | - | - |
| 1777577853 | 13.89° C | 10% | 1096.6 hPa | - | - | - | - |
| 1777570652 | 16.67° C | 9% | 1097.5 hPa | - | - | - | - |
| 1777568852 | 17.22° C | 8% | 1097.6 hPa | - | - | - | - |
| 1777563453 | 15° C | 9% | 1098.2 hPa | - | - | - | - |
| 1777562553 | 14.44° C | 9% | 1098.2 hPa | - | - | - | - |
| 1777561653 | 13.89° C | 8% | 1098.2 hPa | - | - | - | - |
| 1777554452 | 9.44° C | 9% | 1097.6 hPa | - | - | - | - |
| 1777549054 | 6.11° C | 9% | 1096.8 hPa | - | - | - | - |
| 1777548151 | 5.56° C | 9% | 1096.7 hPa | - | - | - | - |
* Rain since midnight (hover to see other rain measurements)
** Current wind speed in m/s (hover to see current wind gust speed)